Flag Weather past 2 weeks in Tegucigalpa, Honduras

Now
77 °F

Scattered clouds.


Feels Like: 79 °F
Forecast: 64 / 77 °F
Wind: 18 mph from North

Location: Tegucigalpa Airport

Current Time: Nov 26, 2014 at 10:19:40 AM

Latest Report: Nov 26, 2014 at 10:00 AM


Visibility: N/A

Pressure: 30.18 "Hg

Humidity: 74%

Dew point: 68 °F

Location of TegucigalpaLocation

Historic Weather in Tegucigalpa — Graph

°F

Tegucigalpa temperature yesterday

Maximum temperature yesterday: 84 °F (at 2:00 PM)
Minimum temperature yesterday: 59 °F (at 5:00 AM)
Average temperature yesterday: 72 °F

Past Weeks' High & Low Weather Summary

 TemperatureHumidityPressure
High86 °F (Nov 11, 1:00 PM)100% (Nov 12, 3:00 AM)30.18 "Hg (Nov 12, 3:00 AM)
Low59 °F (Nov 14, 5:00 AM)48% (Nov 11, 3:00 PM)29.95 "Hg (Nov 23, 3:00 PM)
Average71 °F83%30.08 "Hg
* Reported Nov 11 9:00 AM — Nov 26 9:00 AM, Tegucigalpa, Weather by CustomWeather, © 2014

Note: Actual official high and low records may vary slightly from our data, if they occured in-between our weather recording intervals... More about our weather records

Advertising

Tegucigalpa weather history for previous 24 hours

 ConditionsComfort  
Time TempWeatherWind HumidityBarometerVisibility
9:00 AM
Nov 26
75 °FScattered clouds.14 mph83%30.18 "HgN/A
8:00 AM75 °FBroken clouds.12 mph78%30.15 "Hg6 mi
7:00 AM68 °FBroken clouds.7 mph100%30.12 "Hg5 mi
6:00 AM66 °FMild.N/A100%30.12 "HgN/A
5:00 AM66 °FPassing clouds.3 mph100%30.09 "Hg5 mi
4:00 AM66 °FPassing clouds.2 mph100%30.09 "HgN/A
3:00 AM68 °FPassing clouds.5 mph94%30.07 "HgN/A
2:00 AM68 °FPassing clouds.10 mph100%30.07 "HgN/A
1:00 AM70 °FPartly cloudy.9 mph88%30.09 "HgN/A
12:00 AM70 °FPassing clouds.5 mph94%30.09 "HgN/A
11:00 PM
Nov 25
70 °FPartly cloudy.5 mph94%30.09 "HgN/A
10:00 PM72 °FPassing clouds.6 mph88%30.12 "HgN/A
9:00 PM72 °FPartly cloudy.5 mph88%30.12 "HgN/A
8:00 PM72 °FPassing clouds.No wind83%30.09 "HgN/A
7:00 PM75 °FPassing clouds.7 mph74%30.07 "HgN/A
6:00 PM75 °FPassing clouds.3 mph78%30.04 "HgN/A
5:00 PM77 °FPartly sunny.3 mph69%30.01 "HgN/A
4:00 PM79 °FPartly sunny.9 mph65%29.98 "HgN/A
3:00 PM84 °FScattered clouds.7 mph55%29.98 "HgN/A
2:00 PM84 °FPartly sunny.9 mph62%30.01 "HgN/A
1:00 PM82 °FPartly sunny.6 mph58%30.04 "HgN/A
12:00 PM81 °FBroken clouds.No wind62%30.07 "HgN/A
11:00 AM79 °FScattered clouds.7 mph65%30.09 "HgN/A
10:00 AM77 °FPartly sunny.5 mph74%30.12 "HgN/A
Weather by CustomWeather, © 2014

See weather overviewHow to use our weather pages